Date String (YYYY-MM-DD hh:mm:ss) UTC,Instrument flags,Ambient pressure (hPa),Sample flow (lpm),Bypass flow (lpm),Sample temperature (°C),Ambient temperature (°C),ASC tube jacket temperature (°C),LED temperature (°C),Box temperature (°C),Sample RH (%),Span deviation,Mass concentration (μg/m³),Mass concentration (μg/m³),Mass concentration (μg/m³)
DateTimeUTC,F1_M11,P_M11,Q1_M11,Q2_M11,T1_M11,T2_M11,T3_M11,T4_M11,T5_M11,U1_M11,ZSPAN_M11,X0_M11,X2_M11,X1_M11
2021-11-18 01:00:00,,0833.1,4.99,0.00,22.7,21.9,00.0,31.7,24.4,09.2,0000.0,0018.16,0004.48,0002.95
2021-11-18 01:01:00,,0833.2,5.00,0.00,22.7,21.9,00.0,31.7,24.4,09.2,0000.0,0018.45,0004.51,0002.96
2021-11-18 01:02:00,,0833.2,5.00,0.00,22.7,21.9,00.0,31.7,24.4,09.2,0000.0,0018.37,0004.50,0002.99
2021-11-18 01:03:00,,0833.1,5.01,0.00,22.7,21.9,00.0,31.7,24.4,09.3,0000.0,0018.09,0004.51,0002.99
2021-11-18 01:04:00,,0833.2,5.01,0.00,22.7,21.9,00.0,31.7,24.4,09.3,0000.0,0017.72,0004.56,0003.00
2021-11-18 01:05:00,,0833.2,4.99,0.00,22.6,21.9,00.0,31.7,24.4,09.2,0000.0,0018.27,0004.59,0003.01
2021-11-18 01:06:00,,0833.2,5.00,0.00,22.6,21.9,00.0,31.7,24.4,09.2,0000.0,0017.62,0004.55,0003.03
2021-11-18 01:07:00,,0833.2,4.99,0.00,22.6,21.9,00.0,31.7,24.4,09.2,0000.0,0016.35,0004.57,0003.07
2021-11-18 01:08:00,,0833.1,5.01,0.00,22.6,21.9,00.0,31.7,24.4,09.3,0000.0,0015.72,0004.50,0003.08
2021-11-18 01:09:00,,0833.2,4.99,0.00,22.6,21.9,00.0,31.7,24.3,09.3,0000.0,0016.58,0004.49,0003.11
2021-11-18 01:10:00,,0833.2,5.00,0.00,22.6,21.9,00.0,31.7,24.4,09.2,0000.0,0017.24,0004.48,0003.11
2021-11-18 01:11:00,,0833.1,5.00,0.00,22.6,21.9,00.0,31.7,24.4,09.3,0000.0,0015.65,0004.44,0003.10
2021-11-18 01:12:00,,0833.2,5.01,0.00,22.6,21.8,00.0,31.7,24.3,09.3,0000.0,0015.42,0004.49,0003.11
2021-11-18 01:13:00,,0833.1,5.00,0.00,22.6,21.8,00.0,31.6,24.3,09.3,0000.0,0016.99,0004.53,0003.13
2021-11-18 01:14:00,,0833.2,5.00,0.00,22.6,21.8,00.0,31.6,24.3,09.3,0000.0,0018.84,0004.52,0003.14
2021-11-18 01:15:00,,0833.2,5.01,0.00,22.6,21.8,00.0,31.6,24.3,09.3,0000.0,0018.85,0004.48,0003.15
2021-11-18 01:16:00,,0833.3,5.00,0.00,22.6,21.8,00.0,31.6,24.3,09.3,0000.0,0017.98,0004.48,0003.18
2021-11-18 01:17:00,,0833.3,5.01,0.00,22.5,21.8,00.0,31.6,24.3,09.4,0000.0,0018.41,0004.52,0003.19
2021-11-18 01:18:00,,0833.3,5.00,0.00,22.5,21.8,00.0,31.6,24.3,09.4,0000.0,0018.37,0004.54,0003.19
2021-11-18 01:19:00,,0833.4,4.99,0.00,22.5,21.8,00.0,31.6,24.2,09.4,0000.0,0018.28,0004.63,0003.20
2021-11-18 01:20:00,,0833.4,5.01,0.00,22.5,21.8,00.0,31.6,24.2,09.4,0000.0,0017.57,0004.66,0003.22
2021-11-18 01:21:00,,0833.4,5.00,0.00,22.5,21.8,00.0,31.6,24.2,09.4,0000.0,0018.21,0004.68,0003.23
2021-11-18 01:22:00,,0833.4,5.00,0.00,22.5,21.8,00.0,31.6,24.2,09.5,0000.0,0018.84,0004.73,0003.24
2021-11-18 01:23:00,,0833.4,4.99,0.00,22.5,21.7,00.0,31.6,24.2,09.4,0000.0,0018.76,0004.68,0003.25
2021-11-18 01:24:00,,0833.4,5.01,0.00,22.4,21.7,00.0,31.5,24.2,09.5,0000.0,0017.40,0004.68,0003.26
2021-11-18 01:25:00,,0833.5,4.99,0.00,22.4,21.7,00.0,31.5,24.2,09.6,0000.0,0015.63,0004.70,0003.26
2021-11-18 01:26:00,,0833.4,5.01,0.00,22.4,21.7,00.0,31.5,24.2,09.7,0000.0,0014.64,0004.74,0003.29
2021-11-18 01:27:00,,0833.5,4.99,0.00,22.4,21.6,00.0,31.5,24.2,09.7,0000.0,0014.85,0004.75,0003.30
2021-11-18 01:28:00,,0833.5,5.00,0.00,22.4,21.7,00.0,31.5,24.2,09.7,0000.0,0014.44,0004.77,0003.32
2021-11-18 01:29:00,,0833.4,5.01,0.00,22.4,21.6,00.0,31.5,24.1,09.7,0000.0,0014.42,0004.79,0003.34
2021-11-18 01:30:00,,0833.5,4.99,0.00,22.4,21.6,00.0,31.5,24.1,09.7,0000.0,0014.69,0004.80,0003.36
2021-11-18 01:31:00,,0833.4,5.01,0.00,22.3,21.6,00.0,31.5,24.1,09.7,0000.0,0015.40,0004.81,0003.37
2021-11-18 01:32:00,,0833.5,4.99,0.00,22.3,21.6,00.0,31.5,24.1,09.8,0000.0,0014.81,0004.84,0003.40
2021-11-18 01:33:00,,0833.4,5.00,0.00,22.3,21.6,00.0,31.4,24.1,09.8,0000.0,0017.05,0004.88,0003.43
2021-11-18 01:34:00,,0833.4,5.01,0.00,22.3,21.6,00.0,31.4,24.0,09.7,0000.0,0016.97,0004.91,0003.46
2021-11-18 01:35:00,,0833.4,4.99,0.00,22.3,21.5,00.0,31.4,24.0,09.7,0000.0,0017.40,0004.91,0003.47
2021-11-18 01:36:00,,0833.4,5.01,0.00,22.3,21.5,00.0,31.4,24.0,09.8,0000.0,0018.15,0004.87,0003.48
2021-11-18 01:37:00,,0833.4,4.99,0.00,22.3,21.5,00.0,31.4,24.0,09.9,0000.0,0019.30,0004.89,0003.48
2021-11-18 01:38:00,,0833.4,5.00,0.00,22.2,21.5,00.0,31.4,24.0,09.9,0000.0,0019.52,0004.89,0003.49
2021-11-18 01:39:00,,0833.5,5.01,0.00,22.2,21.5,00.0,31.4,23.9,09.9,0000.0,0019.43,0004.87,0003.50
2021-11-18 01:40:00,,0833.4,4.99,0.00,22.2,21.5,00.0,31.3,23.9,09.9,0000.0,0020.16,0004.84,0003.51
2021-11-18 01:41:00,,0833.4,5.00,0.00,22.2,21.5,00.0,31.3,23.9,09.9,0000.0,0021.54,0004.83,0003.53
2021-11-18 01:42:00,,0833.5,5.01,0.00,22.2,21.5,00.0,31.3,23.9,09.9,0000.0,0021.26,0004.86,0003.52
2021-11-18 01:43:00,,0833.5,4.99,0.00,22.2,21.4,00.0,31.3,23.9,09.9,0000.0,0021.16,0004.91,0003.51
2021-11-18 01:44:00,,0833.5,5.01,0.00,22.2,21.4,00.0,31.3,23.9,09.9,0000.0,0018.81,0004.91,0003.51
2021-11-18 01:45:00,,0833.5,4.99,0.00,22.2,21.4,00.0,31.3,23.9,10.0,0000.0,0017.88,0004.87,0003.51
2021-11-18 01:46:00,,0833.5,5.00,0.00,22.1,21.4,00.0,31.3,23.9,10.0,0000.0,0017.15,0004.91,0003.52
2021-11-18 01:47:00,,0833.6,5.01,0.00,22.1,21.4,00.0,31.3,23.8,10.0,0000.0,0016.66,0004.95,0003.54
2021-11-18 01:48:00,,0833.6,5.01,0.00,22.1,21.3,00.0,31.3,23.8,10.0,0000.0,0015.46,0004.99,0003.55
2021-11-18 01:49:00,,0833.6,4.99,0.00,22.1,21.3,00.0,31.2,23.8,10.0,0000.0,0015.46,0005.02,0003.57
2021-11-18 01:50:00,,0833.6,5.01,0.00,22.1,21.5,00.0,31.3,23.9,10.1,0000.0,0015.67,0005.03,0003.59
2021-11-18 01:51:00,,0833.6,4.99,0.00,22.2,22.2,00.0,31.3,24.1,10.0,0000.0,0015.31,0005.08,0003.61
2021-11-18 01:52:00,,0833.7,5.00,0.00,22.3,22.8,00.0,31.3,24.3,10.0,0000.0,0013.66,0005.09,0003.64
2021-11-18 01:53:00,,0833.6,5.01,0.00,22.4,22.8,00.0,31.3,24.4,09.9,0000.0,0013.33,0005.07,0003.67
2021-11-18 01:54:00,,0833.6,5.00,0.00,22.4,22.6,00.0,31.3,24.4,09.9,0000.0,0013.31,0005.06,0003.70
2021-11-18 01:55:00,,0833.6,4.99,0.00,22.5,22.4,00.0,31.4,24.3,09.9,0000.0,0012.56,0004.99,0003.69
2021-11-18 01:56:00,,0833.6,5.01,0.00,22.5,22.3,00.0,31.4,24.3,09.9,0000.0,0013.11,0005.07,0003.70
2021-11-18 01:57:00,,0833.7,4.99,0.00,22.5,22.2,00.0,31.4,24.3,09.8,0000.0,0014.10,0005.08,0003.70
2021-11-18 01:58:00,,0833.6,4.99,0.00,22.5,22.1,00.0,31.4,24.3,09.8,0000.0,0015.20,0005.15,0003.71
2021-11-18 01:59:00,,0833.7,5.01,0.00,22.4,22.0,00.0,31.4,24.3,09.8,0000.0,0015.77,0005.18,0003.71
